This demonstration page uses our WeatherBlox Daily Observations layout. Learn more.

Left ArrowRight Arrow

44.8408, -93.29828

Hourly Observations for October 31, 2021

Temp ( °F °C ) Dew Point ( °F °C ) Humidity (%) Winds ( mph kmh ) Pressure ( in mb ) Visibility ( mi km ) Precip ( " mm )
12:53 am 00:53 Mostly Cloudy 46 7.8 34 1.1 63 63 N 18 30 29.94 1014 10 16 0.00 0.00
1:53 am 01:53 Mostly Clear 45 7.2 33 0.6 63 63 N 13 20 29.96 1015 10 16 0.00 0.00
2:53 am 02:53 Mostly Clear 44 6.7 32 0 63 63 NNW 13 20 29.99 1016 10 16 0.00 0.00
3:53 am 03:53 Mostly Clear 42 5.6 34 1.1 73 73 NNW 12 19 30.01 1016 10 16 0.00 0.00
4:53 am 04:53 Clear 40 4.4 33 0.6 77 77 NW 9 15 30.03 1017 10 16 0.00 0.00
5:53 am 05:53 Clear 39 3.9 32 0 76 76 NW 9 15 30.05 1018 10 16 0.00 0.00
6:53 am 06:53 Clear 38 3.3 32 0 79 79 NW 10 17 30.07 1018 10 16 0.00 0.00
7:53 am 07:53 Mostly Sunny 36 2.2 31 -0.6 82 82 WNW 7 11 30.09 1019 10 16 0.00 0.00
8:53 am 08:53 Mostly Sunny 38 3.3 31 -0.6 76 76 NW 10 17 30.12 1020 10 16 0.00 0.00
9:53 am 09:53 Sunny 41 5 30 -1.1 65 65 NW 12 19 30.13 1020 10 16 0.00 0.00
10:53 am 10:53 Sunny 45 7.2 29 -1.7 54 54 NW 10 17 30.14 1021 10 16 0.00 0.00
11:53 am 11:53 Sunny 47 8.3 28 -2.2 48 48 WNW 14 22 30.14 1021 10 16 0.00 0.00
12:53 pm 12:53 Partly Cloudy 46 7.8 27 -2.8 47 47 NW 21 33 30.14 1021 10 16 0.00 0.00
1:53 pm 13:53 Mostly Cloudy 49 9.4 28 -2.2 44 44 W 20 31 30.13 1020 10 16 0.00 0.00
2:53 pm 14:53 Mostly Cloudy 47 8.3 27 -2.8 46 46 W 18 30 30.14 1021 10 16 0.00 0.00
3:53 pm 15:53 Mostly Cloudy 47 8.3 26 -3.3 44 44 W 17 28 30.14 1021 10 16 0.00 0.00
4:53 pm 16:53 Mostly Cloudy 44 6.7 25 -3.9 47 47 NW 24 39 30.16 1022 10 16 0.00 0.00
5:53 pm 17:53 Mostly Cloudy 43 6.1 22 -5.6 43 43 WNW 18 30 30.18 1022 10 16 0.00 0.00
6:53 pm 18:53 Mostly Cloudy 42 5.6 24 -4.4 49 49 WNW 12 19 30.19 1023 10 16 0.00 0.00
7:53 pm 19:53 Mostly Cloudy 41 5 25 -3.9 53 53 W 12 19 30.21 1023 10 16 0.00 0.00
8:53 pm 20:53 Mostly Cloudy 41 5 26 -3.3 55 55 W 8 13 30.22 1023 10 16 0.00 0.00
9:53 pm 21:53 Partly Cloudy 39 3.9 26 -3.3 60 60 W 7 11 30.23 1024 10 16 0.00 0.00
10:53 pm 22:53 Clear 38 3.3 26 -3.3 62 62 W 8 13 30.23 1024 10 16 0.00 0.00
11:53 pm 23:53 Partly Cloudy 37 2.8 26 -3.3 65 65 W 7 11 30.23 1024 10 16 0.00 0.00

Powered by AerisWeather